Weather History for Cody, WY

Change the Weather History Date:

Thursday, January 2, 2014

  Actual Average Record
Temperature  
Mean Temperature 28 °F -  
Max Temperature 44 °F 30 °F 59 °F (1927)
Min Temperature 12 °F 9 °F -21 °F (1924)
Degree Days  
Heating Degree Days 37    
Moisture  
Dew Point 18 °F    
Average Humidity 70    
Maximum Humidity 100    
Minimum Humidity 39    
Precipitation  
Precipitation 0.01 in - - ()
Sea Level Pressure  
Sea Level Pressure 30.05 in    
Wind  
Wind Speed 7 mph (NW)    
Max Wind Speed 30 mph    
Max Gust Speed 44 mph    
Visibility 10 miles    
Events      
Averages and records for this station are not official NWS values.
T = Trace of Precipitation, MM = Missing Value Source: NWS Daily Summary

Daily Weather History Graph

Daily Weather History Graph

Search for Another Location

Airport:

Trip Planner

Search our weather history database for the weather conditions in past years. The results will help you decide how hot, cold, wet, or windy it might be!

Date:

Astronomy

Jan. 02, 2014 Rise Set
Actual Time 7:52 AM MST 4:47 PM MST
Civil Twilight 7:19 AM MST 5:21 PM MST
Nautical Twilight 6:42 AM MST 5:57 PM MST
Astronomical Twilight 6:07 AM MST 6:33 PM MST
Moon 8:31 AM MST (1/2) 6:54 PM MST (1/2)
Length of Visible Light 10h 01m
Length of Day
8h 55m
Waxing Crescent, 3% of the Moon is Illuminated
Jan 2
Waxing Crescent
Jan 7
First Quarter
Jan 15
Full
Jan 23
Last Quarter
Jan 30
New

Hourly Weather History & Observations

Time (MST) Temp. Windchill Dew Point Humidity Pressure Visibility Wind Dir Wind Speed Gust Speed Precip Events Conditions
12:15 AM 17.6 °F 8.2 °F 14.0 °F 86% 30.16 in 10.0 mi NNE 6.9 mph - N/A   Clear
12:35 AM 17.6 °F 8.2 °F 14.0 °F 86% 30.16 in 10.0 mi NE 6.9 mph - N/A   Clear
12:55 AM 15.8 °F 6.1 °F 12.2 °F 86% 30.15 in 10.0 mi North 6.9 mph - N/A   Clear
1:15 AM 15.8 °F - 15.8 °F 100% 30.15 in 10.0 mi Calm Calm - N/A   Clear
1:35 AM 15.8 °F 8.6 °F 14.0 °F 93% 30.14 in 10.0 mi NE 4.6 mph - N/A   Clear
1:55 AM 15.8 °F - 12.2 °F 86% 30.14 in 10.0 mi Calm Calm - N/A   Clear
2:15 AM 15.8 °F - 12.2 °F 86% 30.14 in 10.0 mi Calm Calm - N/A   Clear
2:35 AM 15.8 °F 8.6 °F 10.4 °F 79% 30.15 in 10.0 mi North 4.6 mph - N/A   Clear
2:55 AM 15.8 °F - 14.0 °F 93% 30.14 in 10.0 mi Calm Calm - N/A   Clear
3:15 AM 15.8 °F 8.6 °F 12.2 °F 86% 30.14 in 10.0 mi NNE 4.6 mph - N/A   Clear
3:35 AM 15.8 °F - 14.0 °F 93% 30.13 in 10.0 mi Calm Calm - N/A   Clear
3:56 AM 15.8 °F - 14.0 °F 93% 30.13 in 10.0 mi Calm Calm - N/A   Clear
4:15 AM 14.0 °F 6.5 °F 12.2 °F 93% 30.14 in 10.0 mi NNE 4.6 mph - N/A   Clear
4:35 AM 12.2 °F 4.3 °F 12.2 °F 100% 30.14 in 10.0 mi North 4.6 mph - N/A   Clear
4:55 AM 12.2 °F 2.9 °F 12.2 °F 100% 30.13 in 2.0 mi NE 5.8 mph - N/A   Overcast
5:15 AM 14.0 °F 5.1 °F 14.0 °F 100% 30.13 in 5.0 mi North 5.8 mph - N/A   Mostly Cloudy
5:35 AM 14.0 °F 5.1 °F 12.2 °F 93% 30.13 in 10.0 mi NNE 5.8 mph - N/A   Clear
5:55 AM 14.0 °F 3.9 °F 12.2 °F 93% 30.12 in 10.0 mi NNE 6.9 mph - N/A   Clear
6:15 AM 14.0 °F 5.1 °F 12.2 °F 93% 30.12 in 10.0 mi North 5.8 mph - N/A   Clear
6:35 AM 12.2 °F 2.9 °F 12.2 °F 100% 30.13 in 10.0 mi NNE 5.8 mph - N/A   Clear
6:55 AM 14.0 °F 6.5 °F 12.2 °F 93% 30.13 in 10.0 mi NE 4.6 mph - N/A   Clear
7:15 AM 14.0 °F 6.5 °F 12.2 °F 93% 30.13 in 10.0 mi North 4.6 mph - N/A   Clear
7:35 AM 14.0 °F - 12.2 °F 93% 30.13 in 10.0 mi Calm Calm - N/A   Clear
7:55 AM 15.8 °F 6.1 °F 14.0 °F 93% 30.12 in 10.0 mi South 6.9 mph - N/A   Partly Cloudy
8:35 AM 17.6 °F 12.3 °F 15.8 °F 93% 30.12 in 10.0 mi SE 3.5 mph - N/A   Overcast
8:55 AM 19.4 °F - 17.6 °F 93% 30.13 in 10.0 mi Calm Calm - N/A   Overcast
9:15 AM 19.4 °F 12.8 °F 17.6 °F 93% 30.13 in 10.0 mi SE 4.6 mph - N/A   Overcast
9:35 AM 19.4 °F - 17.6 °F 93% 30.14 in 10.0 mi Calm Calm - N/A   Mostly Cloudy
9:55 AM 19.4 °F 12.8 °F 19.4 °F 100% 30.14 in 10.0 mi North 4.6 mph - N/A   Overcast
10:15 AM 21.2 °F - 19.4 °F 93% 30.14 in 10.0 mi Calm Calm - N/A   Overcast
10:35 AM 24.8 °F - 21.2 °F 86% 30.13 in 10.0 mi Calm Calm - N/A   Overcast
10:55 AM 28.4 °F 24.6 °F 21.2 °F 74% 30.12 in 10.0 mi SW 3.5 mph - N/A   Overcast
11:15 AM 30.2 °F 21.9 °F 21.2 °F 69% 30.11 in 10.0 mi WNW 9.2 mph - N/A   Overcast
11:35 AM 33.8 °F 28.6 °F 21.2 °F 60% 30.11 in 10.0 mi WNW 5.8 mph 18.4 mph N/A   Overcast
11:55 AM 32.0 °F 26.4 °F 19.4 °F 60% 30.09 in 10.0 mi West 5.8 mph - N/A   Overcast
12:15 PM 35.6 °F 29.9 °F 21.2 °F 56% 30.09 in 10.0 mi North 6.9 mph - N/A   Overcast
12:35 PM 28.4 °F 20.4 °F 23.0 °F 80% 30.10 in 10.0 mi NE 8.1 mph - N/A   Mostly Cloudy
12:55 PM 30.2 °F 26.7 °F 19.4 °F 64% 30.08 in 10.0 mi East 3.5 mph - N/A   Overcast
1:15 PM 33.8 °F 29.6 °F 21.2 °F 60% 30.06 in 10.0 mi West 4.6 mph - N/A   Overcast
1:35 PM 41.0 °F 35.2 °F 23.0 °F 49% 30.04 in 10.0 mi WSW 9.2 mph 16.1 mph N/A   Overcast
1:55 PM 42.8 °F 38.6 °F 21.2 °F 42% 30.04 in 10.0 mi West 6.9 mph - N/A   Mostly Cloudy
2:15 PM 42.8 °F 37.0 °F 24.8 °F 49% 30.04 in 10.0 mi West 10.4 mph 16.1 mph N/A   Mostly Cloudy
2:35 PM 42.8 °F 35.8 °F 21.2 °F 42% 30.03 in 10.0 mi WSW 13.8 mph 29.9 mph N/A   Mostly Cloudy
2:55 PM 42.8 °F 36.2 °F 21.2 °F 42% 30.00 in 10.0 mi West 12.7 mph 27.6 mph N/A   Scattered Clouds
3:15 PM 44.6 °F 38.1 °F 21.2 °F 39% 30.01 in 10.0 mi West 13.8 mph 25.3 mph N/A   Clear
3:35 PM 44.6 °F 37.8 °F 21.2 °F 39% 30.01 in 10.0 mi West 15.0 mph 21.9 mph N/A   Clear
4:15 PM 30.2 °F 25.4 °F 15.8 °F 55% 30.00 in 10.0 mi North 4.6 mph - N/A   Clear
4:35 PM 35.6 °F 32.8 °F 21.2 °F 56% 30.00 in 10.0 mi NW 3.5 mph - N/A   Clear
4:55 PM 32.0 °F 25.6 °F 19.4 °F 60% 29.99 in 10.0 mi NNW 6.9 mph - N/A   Clear
5:15 PM 30.2 °F 20.8 °F 19.4 °F 64% 29.99 in 10.0 mi North 11.5 mph 18.4 mph N/A   Clear
5:35 PM 37.4 °F 29.8 °F 24.8 °F 60% 29.98 in 10.0 mi West 11.5 mph 18.4 mph N/A   Clear
5:55 PM 42.8 °F 35.1 °F 21.2 °F 42% 29.97 in 10.0 mi West 16.1 mph 23.0 mph N/A   Clear
6:15 PM 42.8 °F 34.3 °F 21.2 °F 42% 29.96 in 10.0 mi West 19.6 mph 31.1 mph N/A   Clear
6:35 PM 42.8 °F 34.5 °F 21.2 °F 42% 29.96 in 10.0 mi West 18.4 mph 28.8 mph N/A   Clear
6:55 PM 32.0 °F 22.5 °F 17.6 °F 55% 29.97 in 10.0 mi NE 12.7 mph 24.2 mph N/A   Clear
7:15 PM 23.0 °F 11.7 °F 14.0 °F 68% 29.98 in 10.0 mi NE 11.5 mph 16.1 mph N/A   Clear
7:35 PM 33.8 °F 29.6 °F 24.8 °F 70% 29.97 in 10.0 mi West 4.6 mph - N/A   Clear
7:55 PM 28.4 °F 17.5 °F 17.6 °F 64% 29.95 in 10.0 mi West 13.8 mph 21.9 mph N/A   Clear
8:15 PM 42.8 °F 36.2 °F 23.0 °F 46% 29.95 in 10.0 mi West 12.7 mph 28.8 mph N/A   Clear
8:35 PM 41.0 °F 33.1 °F 21.2 °F 45% 29.95 in 10.0 mi West 15.0 mph 24.2 mph N/A   Clear
8:55 PM 42.8 °F 34.3 °F 21.2 °F 42% 29.93 in 10.0 mi West 19.6 mph 27.6 mph N/A   Clear
9:15 PM 42.8 °F 36.6 °F 21.2 °F 42% 29.93 in 10.0 mi West 11.5 mph 26.5 mph N/A   Clear
9:35 PM 42.8 °F 35.8 °F 21.2 °F 42% 29.91 in 10.0 mi WSW 13.8 mph 25.3 mph N/A   Clear
9:55 PM 41.0 °F 31.6 °F 21.2 °F 45% 29.91 in 10.0 mi WSW 20.7 mph 38.0 mph N/A   Clear
10:15 PM 41.0 °F 31.1 °F 21.2 °F 45% 29.93 in 10.0 mi West 23.0 mph 34.5 mph N/A   Partly Cloudy
10:35 PM 41.0 °F 32.8 °F 21.2 °F 45% 29.90 in 10.0 mi WSW 16.1 mph 43.7 mph N/A   Clear
10:55 PM 41.0 °F 29.8 °F 21.2 °F 45% 29.90 in 10.0 mi SW 29.9 mph 39.1 mph 0.01 in   Clear
11:15 PM 41.0 °F 30.9 °F 21.2 °F 45% 29.90 in 10.0 mi WSW 24.2 mph 36.8 mph N/A   Clear
11:35 PM 41.0 °F 31.6 °F 21.2 °F 45% 29.88 in 10.0 mi WSW 20.7 mph 29.9 mph N/A   Clear
11:55 PM 41.0 °F 31.1 °F 23.0 °F 49% 29.86 in 10.0 mi WSW 23.0 mph 39.1 mph N/A   Clear